date,time,SUV Intensity [MED/Hr],UV Index,Daily total [MED],Since Last [MED]
18/04/2022,00:07:03,0.000,0.0,0.0,0.0
18/04/2022,00:08:03,0.000,0.0,0.0,0.0
18/04/2022,00:09:04,0.000,0.0,0.0,0.0
18/04/2022,00:10:02,-0.000,0.0,0.0,0.0
18/04/2022,00:11:03,-0.001,0.0,0.0,0.0
18/04/2022,00:12:02,0.000,0.0,0.0,0.0
18/04/2022,00:13:02,0.000,0.0,0.0,0.0
18/04/2022,00:14:03,0.000,0.0,0.0,0.0
18/04/2022,00:15:03,-0.001,0.0,0.0,0.0
18/04/2022,00:16:11,0.000,0.0,0.0,0.0
18/04/2022,00:18:03,-0.000,0.0,0.0,0.0
18/04/2022,00:19:03,0.001,0.0,0.0,0.0
18/04/2022,00:20:02,0.000,0.0,0.0,0.0
18/04/2022,00:21:03,0.000,0.0,0.0,0.0
18/04/2022,00:22:03,-0.000,0.0,0.0,0.0
18/04/2022,00:23:03,0.000,0.0,0.0,0.0
18/04/2022,00:24:03,0.000,0.0,0.0,0.0
18/04/2022,00:25:03,-0.001,0.0,0.0,0.0
18/04/2022,00:26:11,0.001,0.0,0.0,0.0
18/04/2022,00:27:03,-0.001,0.0,0.0,0.0
18/04/2022,00:28:03,-0.000,0.0,0.0,0.0
18/04/2022,00:29:11,0.001,0.0,0.0,0.0
18/04/2022,00:30:02,0.000,0.0,0.0,0.0
18/04/2022,00:31:02,0.000,0.0,0.0,0.0
18/04/2022,00:32:03,0.000,0.0,0.0,0.0
18/04/2022,00:33:03,0.000,0.0,0.0,0.0
18/04/2022,00:34:03,-0.001,0.0,0.0,0.0
18/04/2022,00:35:02,-0.000,0.0,0.0,0.0
18/04/2022,00:36:03,0.001,0.0,0.0,0.0
18/04/2022,00:37:03,0.000,0.0,0.0,0.0
18/04/2022,00:38:03,0.000,0.0,0.0,0.0
18/04/2022,00:39:13,0.000,0.0,0.0,0.0
18/04/2022,00:41:05,0.001,0.0,0.0,0.0
18/04/2022,00:42:11,-0.000,0.0,0.0,0.0
18/04/2022,00:43:03,-0.001,0.0,0.0,0.0
18/04/2022,00:44:02,0.000,0.0,0.0,0.0
18/04/2022,00:45:03,0.000,0.0,0.0,0.0
18/04/2022,00:46:03,0.000,0.0,0.0,0.0
18/04/2022,00:47:03,0.000,0.0,0.0,0.0
18/04/2022,00:48:02,0.000,0.0,0.0,0.0
18/04/2022,00:49:03,0.001,0.0,0.0,0.0
18/04/2022,00:50:03,0.000,0.0,0.0,0.0
18/04/2022,00:51:03,-0.001,0.0,0.0,0.0
18/04/2022,00:52:03,-0.000,0.0,0.0,0.0
18/04/2022,00:53:03,-0.001,0.0,0.0,0.0
18/04/2022,00:54:02,-0.000,0.0,0.0,0.0
18/04/2022,00:55:19,-0.000,0.0,0.0,0.0
18/04/2022,00:57:03,0.000,0.0,0.0,0.0
18/04/2022,00:58:03,0.000,0.0,0.0,0.0
18/04/2022,00:59:03,0.000,0.0,0.0,0.0
18/04/2022,01:00:03,0.000,0.0,0.0,0.0
18/04/2022,01:01:02,0.000,0.0,0.0,0.0
18/04/2022,01:02:03,0.000,0.0,0.0,0.0
18/04/2022,01:03:03,-0.001,0.0,0.0,0.0
18/04/2022,01:04:03,-0.000,0.0,0.0,0.0
18/04/2022,01:05:03,0.000,0.0,0.0,0.0
18/04/2022,01:06:03,0.000,0.0,0.0,0.0
18/04/2022,01:07:03,0.000,0.0,0.0,0.0
18/04/2022,01:08:03,0.000,0.0,0.0,0.0
18/04/2022,01:09:03,0.000,0.0,0.0,0.0
18/04/2022,01:10:03,0.001,0.0,0.0,0.0
18/04/2022,01:11:10,0.000,0.0,0.0,0.0
18/04/2022,01:12:01,-0.000,0.0,0.0,0.0
18/04/2022,01:13:03,0.001,0.0,0.0,0.0
18/04/2022,01:14:04,0.001,0.0,0.0,0.0
18/04/2022,01:15:02,-0.001,0.0,0.0,0.0
18/04/2022,01:16:03,0.001,0.0,0.0,0.0
18/04/2022,01:17:03,0.001,0.0,0.0,0.0
18/04/2022,01:18:03,0.001,0.0,0.0,0.0
18/04/2022,01:19:12,0.000,0.0,0.0,0.0
18/04/2022,01:21:03,0.000,0.0,0.0,0.0
18/04/2022,01:22:02,-0.001,0.0,0.0,0.0
18/04/2022,01:23:03,0.000,0.0,0.0,0.0
18/04/2022,01:24:03,0.000,0.0,0.0,0.0
18/04/2022,01:25:02,0.000,0.0,0.0,0.0
18/04/2022,01:26:03,-0.001,0.0,0.0,0.0
18/04/2022,01:27:03,0.001,0.0,0.0,0.0
18/04/2022,01:28:03,0.000,0.0,0.0,0.0
18/04/2022,01:29:11,-0.000,0.0,0.0,0.0
18/04/2022,01:30:03,0.001,0.0,0.0,0.0
18/04/2022,01:31:03,0.001,0.0,0.0,0.0
18/04/2022,01:32:03,0.001,0.0,0.0,0.0
18/04/2022,01:33:03,0.001,0.0,0.0,0.0
18/04/2022,01:34:03,0.002,0.0,0.0,0.0
18/04/2022,01:35:03,0.001,0.0,0.0,0.0
18/04/2022,01:36:03,0.000,0.0,0.0,0.0
18/04/2022,01:37:03,0.001,0.0,0.0,0.0
18/04/2022,01:38:03,0.001,0.0,0.0,0.0
18/04/2022,01:39:11,-0.000,0.0,0.0,0.0
18/04/2022,01:41:03,0.001,0.0,0.0,0.0
18/04/2022,01:42:03,0.001,0.0,0.0,0.0
18/04/2022,01:43:02,0.001,0.0,0.0,0.0
18/04/2022,01:44:03,0.001,0.0,0.0,0.0
18/04/2022,01:45:02,0.001,0.0,0.0,0.0
18/04/2022,01:46:03,0.001,0.0,0.0,0.0
18/04/2022,01:47:03,-0.000,0.0,0.0,0.0
18/04/2022,01:48:03,0.001,0.0,0.0,0.0
18/04/2022,01:49:03,0.002,0.0,0.0,0.0
18/04/2022,01:50:11,0.000,0.0,0.0,0.0
18/04/2022,01:51:03,0.001,0.0,0.0,0.0
18/04/2022,01:52:12,0.001,0.0,0.0,0.0
18/04/2022,01:53:03,0.001,0.0,0.0,0.0
18/04/2022,01:54:04,0.001,0.0,0.0,0.0
18/04/2022,01:55:11,0.001,0.0,0.0,0.0
18/04/2022,01:56:02,0.001,0.0,0.0,0.0
18/04/2022,01:57:03,0.001,0.0,0.0,0.0
18/04/2022,01:58:03,0.001,0.0,0.0,0.0
18/04/2022,01:59:03,0.001,0.0,0.0,0.0
18/04/2022,02:00:03,0.001,0.0,0.0,0.0
18/04/2022,02:01:03,0.001,0.0,0.0,0.0
18/04/2022,02:02:03,-0.000,0.0,0.0,0.0
18/04/2022,02:03:03,0.001,0.0,0.0,0.0
18/04/2022,02:04:03,0.001,0.0,0.0,0.0
18/04/2022,02:05:11,-0.000,0.0,0.0,0.0
18/04/2022,02:07:04,0.001,0.0,0.0,0.0
18/04/2022,02:08:03,0.001,0.0,0.0,0.0
18/04/2022,02:09:03,0.002,0.0,0.0,0.0
18/04/2022,02:10:03,0.000,0.0,0.0,0.0
18/04/2022,02:11:03,0.001,0.0,0.0,0.0
18/04/2022,02:12:03,0.001,0.0,0.0,0.0
18/04/2022,02:13:03,0.001,0.0,0.0,0.0
18/04/2022,02:14:03,0.001,0.0,0.0,0.0
18/04/2022,02:15:12,0.001,0.0,0.0,0.0
18/04/2022,02:16:03,0.001,0.0,0.0,0.0
18/04/2022,02:17:02,0.000,0.0,0.0,0.0
18/04/2022,02:18:03,0.001,0.0,0.0,0.0
18/04/2022,02:19:03,0.001,0.0,0.0,0.0
18/04/2022,02:20:03,0.001,0.0,0.0,0.0
18/04/2022,02:21:02,0.001,0.0,0.0,0.0
18/04/2022,02:22:03,0.001,0.0,0.0,0.0
18/04/2022,02:23:03,0.002,0.0,0.0,0.0
18/04/2022,02:24:03,0.001,0.0,0.0,0.0
18/04/2022,02:25:03,0.001,0.0,0.0,0.0
18/04/2022,02:26:03,0.000,0.0,0.0,0.0
18/04/2022,02:27:03,-0.000,0.0,0.0,0.0
18/04/2022,02:28:11,0.001,0.0,0.0,0.0
18/04/2022,02:29:02,0.001,0.0,0.0,0.0
18/04/2022,02:30:03,0.001,0.0,0.0,0.0
18/04/2022,02:31:03,0.001,0.0,0.0,0.0
18/04/2022,02:32:03,0.001,0.0,0.0,0.0
18/04/2022,02:33:03,0.002,0.0,0.0,0.0
18/04/2022,02:34:03,0.001,0.0,0.0,0.0
18/04/2022,02:35:03,0.000,0.0,0.0,0.0
18/04/2022,02:36:03,0.001,0.0,0.0,0.0
18/04/2022,02:37:03,0.001,0.0,0.0,0.0
18/04/2022,02:38:11,0.001,0.0,0.0,0.0
18/04/2022,02:39:02,0.002,0.0,0.0,0.0
18/04/2022,02:40:02,0.001,0.0,0.0,0.0
18/04/2022,02:41:11,0.002,0.0,0.0,0.0
18/04/2022,02:42:03,0.001,0.0,0.0,0.0
18/04/2022,02:43:03,0.001,0.0,0.0,0.0
18/04/2022,02:44:03,0.001,0.0,0.0,0.0
18/04/2022,02:45:03,0.001,0.0,0.0,0.0
18/04/2022,02:46:03,0.001,0.0,0.0,0.0
18/04/2022,02:47:03,0.001,0.0,0.0,0.0
18/04/2022,02:48:03,0.002,0.0,0.0,0.0
18/04/2022,02:49:03,0.000,0.0,0.0,0.0
18/04/2022,02:50:02,0.001,0.0,0.0,0.0
18/04/2022,02:51:03,0.001,0.0,0.0,0.0
18/04/2022,02:52:03,0.001,0.0,0.0,0.0
18/04/2022,02:53:03,0.001,0.0,0.0,0.0
18/04/2022,02:54:03,0.001,0.0,0.0,0.0
18/04/2022,02:55:03,0.000,0.0,0.0,0.0
18/04/2022,02:56:03,0.001,0.0,0.0,0.0
18/04/2022,02:57:03,0.000,0.0,0.0,0.0
18/04/2022,02:58:03,0.001,0.0,0.0,0.0
18/04/2022,02:59:11,0.000,0.0,0.0,0.0
18/04/2022,03:00:02,0.001,0.0,0.0,0.0
18/04/2022,03:01:03,0.001,0.0,0.0,0.0
18/04/2022,03:02:12,0.001,0.0,0.0,0.0
18/04/2022,03:04:03,0.001,0.0,0.0,0.0
18/04/2022,03:05:03,0.001,0.0,0.0,0.0
18/04/2022,03:06:03,0.001,0.0,0.0,0.0
18/04/2022,03:07:03,0.002,0.0,0.0,0.0
18/04/2022,03:08:03,0.002,0.0,0.0,0.0
18/04/2022,03:09:03,0.001,0.0,0.0,0.0
18/04/2022,03:10:02,0.001,0.0,0.0,0.0
18/04/2022,03:11:03,0.001,0.0,0.0,0.0
18/04/2022,03:12:12,0.002,0.0,0.0,0.0
18/04/2022,03:14:03,0.001,0.0,0.0,0.0
18/04/2022,03:15:03,0.001,0.0,0.0,0.0
18/04/2022,03:16:03,0.001,0.0,0.0,0.0
18/04/2022,03:17:11,0.001,0.0,0.0,0.0
18/04/2022,03:18:02,0.001,0.0,0.0,0.0
18/04/2022,03:19:03,0.001,0.0,0.0,0.0
18/04/2022,03:20:03,0.002,0.0,0.0,0.0
18/04/2022,03:21:03,0.001,0.0,0.0,0.0
18/04/2022,03:22:11,0.001,0.0,0.0,0.0
18/04/2022,03:23:03,0.001,0.0,0.0,0.0
18/04/2022,03:24:03,0.002,0.0,0.0,0.0
18/04/2022,03:25:11,0.001,0.0,0.0,0.0
18/04/2022,03:26:03,0.001,0.0,0.0,0.0
18/04/2022,03:27:03,0.002,0.0,0.0,0.0
18/04/2022,03:28:03,0.002,0.0,0.0,0.0
18/04/2022,03:29:03,0.001,0.0,0.0,0.0
18/04/2022,03:30:03,0.001,0.0,0.0,0.0
18/04/2022,03:31:03,0.002,0.0,0.0,0.0
18/04/2022,03:32:03,0.001,0.0,0.0,0.0
18/04/2022,03:33:03,0.002,0.0,0.0,0.0
18/04/2022,03:34:03,0.001,0.0,0.0,0.0
18/04/2022,03:35:03,0.001,0.0,0.0,0.0
18/04/2022,03:36:03,0.001,0.0,0.0,0.0
18/04/2022,03:37:06,0.000,0.0,0.0,0.0
18/04/2022,03:38:03,0.001,0.0,0.0,0.0
18/04/2022,03:39:03,0.000,0.0,0.0,0.0
18/04/2022,03:40:03,0.001,0.0,0.0,0.0
18/04/2022,03:41:03,0.002,0.0,0.0,0.0
18/04/2022,03:42:03,0.001,0.0,0.0,0.0
18/04/2022,03:43:03,0.002,0.0,0.0,0.0
18/04/2022,03:44:03,0.001,0.0,0.0,0.0
18/04/2022,03:45:03,0.001,0.0,0.0,0.0
18/04/2022,03:46:03,0.001,0.0,0.0,0.0
18/04/2022,03:47:03,0.002,0.0,0.0,0.0
18/04/2022,03:48:03,0.002,0.0,0.0,0.0
18/04/2022,03:49:12,0.002,0.0,0.0,0.0
18/04/2022,03:50:03,0.002,0.0,0.0,0.0
18/04/2022,03:51:03,0.001,0.0,0.0,0.0
18/04/2022,03:52:03,0.001,0.0,0.0,0.0
18/04/2022,03:53:03,0.002,0.0,0.0,0.0
18/04/2022,03:54:03,0.002,0.0,0.0,0.0
18/04/2022,03:55:03,0.001,0.0,0.0,0.0
18/04/2022,03:56:03,0.001,0.0,0.0,0.0
18/04/2022,03:57:04,0.001,0.0,0.0,0.0
18/04/2022,03:58:03,0.001,0.0,0.0,0.0
18/04/2022,03:59:03,0.001,0.0,0.0,0.0
18/04/2022,04:00:20,0.002,0.0,0.0,0.0
18/04/2022,04:02:04,0.002,0.0,0.0,0.0
18/04/2022,04:03:03,0.002,0.0,0.0,0.0
18/04/2022,04:04:03,0.002,0.0,0.0,0.0
18/04/2022,04:05:12,0.000,0.0,0.0,0.0
18/04/2022,04:07:04,0.001,0.0,0.0,0.0
18/04/2022,04:08:03,0.002,0.0,0.0,0.0
18/04/2022,04:09:03,0.002,0.0,0.0,0.0
18/04/2022,04:10:03,0.001,0.0,0.0,0.0
18/04/2022,04:11:03,0.001,0.0,0.0,0.0
18/04/2022,04:12:03,0.002,0.0,0.0,0.0
18/04/2022,04:13:03,0.001,0.0,0.0,0.0
18/04/2022,04:14:03,0.001,0.0,0.0,0.0
18/04/2022,04:15:12,0.001,0.0,0.0,0.0
18/04/2022,04:16:03,0.001,0.0,0.0,0.0
18/04/2022,04:17:03,0.001,0.0,0.0,0.0
18/04/2022,04:18:03,0.001,0.0,0.0,0.0
18/04/2022,04:19:03,0.001,0.0,0.0,0.0
18/04/2022,04:20:03,0.001,0.0,0.0,0.0
18/04/2022,04:21:03,0.001,0.0,0.0,0.0
18/04/2022,04:22:03,0.001,0.0,0.0,0.0
18/04/2022,04:23:12,0.001,0.0,0.0,0.0
18/04/2022,04:24:04,0.001,0.0,0.0,0.0
18/04/2022,04:25:12,0.001,0.0,0.0,0.0
18/04/2022,04:26:12,0.001,0.0,0.0,0.0
18/04/2022,04:27:03,0.002,0.0,0.0,0.0
18/04/2022,04:28:03,0.001,0.0,0.0,0.0
18/04/2022,04:29:03,0.001,0.0,0.0,0.0
18/04/2022,04:30:03,0.001,0.0,0.0,0.0
18/04/2022,04:31:04,0.002,0.0,0.0,0.0
18/04/2022,04:32:03,0.002,0.0,0.0,0.0
18/04/2022,04:33:03,0.002,0.0,0.0,0.0
18/04/2022,04:34:03,0.001,0.0,0.0,0.0
18/04/2022,04:34:50,0.001,0.0,0.0,0.0
18/04/2022,04:36:03,0.001,0.0,0.0,0.0
18/04/2022,04:37:03,0.002,0.0,0.0,0.0
18/04/2022,04:38:03,0.001,0.0,0.0,0.0
18/04/2022,04:39:12,0.002,0.0,0.0,0.0
18/04/2022,04:40:03,0.001,0.0,0.0,0.0
18/04/2022,04:41:03,0.002,0.0,0.0,0.0
18/04/2022,04:42:03,0.001,0.0,0.0,0.0
18/04/2022,04:43:04,0.002,0.0,0.0,0.0
18/04/2022,04:44:04,0.002,0.0,0.0,0.0
18/04/2022,04:45:03,0.002,0.0,0.0,0.0
18/04/2022,04:46:03,0.002,0.0,0.0,0.0
18/04/2022,04:47:04,0.002,0.0,0.0,0.0
18/04/2022,04:48:04,0.002,0.0,0.0,0.0
18/04/2022,04:49:11,0.002,0.0,0.0,0.0
18/04/2022,04:50:03,0.002,0.0,0.0,0.0
18/04/2022,04:51:03,0.002,0.0,0.0,0.0
18/04/2022,04:52:03,0.002,0.0,0.0,0.0
18/04/2022,04:53:03,0.002,0.0,0.0,0.0
18/04/2022,04:54:04,0.002,0.0,0.0,0.0
18/04/2022,04:55:03,0.002,0.0,0.0,0.0
18/04/2022,04:56:03,0.002,0.0,0.0,0.0
18/04/2022,04:57:04,0.002,0.0,0.0,0.0
18/04/2022,04:58:03,0.002,0.0,0.0,0.0
18/04/2022,04:59:03,0.003,0.0,0.0,0.0
18/04/2022,05:00:03,0.002,0.0,0.0,0.0
18/04/2022,05:01:03,0.003,0.0,0.0,0.0
18/04/2022,05:02:03,0.003,0.0,0.0,0.0
18/04/2022,05:03:03,0.003,0.0,0.0,0.0
18/04/2022,05:04:03,0.003,0.0,0.0,0.0
18/04/2022,05:05:03,0.002,0.0,0.0,0.0
18/04/2022,05:06:03,0.003,0.0,0.0,0.0
18/04/2022,05:07:03,0.003,0.0,0.0,0.0
18/04/2022,05:08:03,0.003,0.0,0.0,0.0
18/04/2022,05:09:03,0.003,0.0,0.0,0.0
18/04/2022,05:10:11,0.004,0.0,0.0,0.0
18/04/2022,05:11:02,0.004,0.0,0.0,0.0
18/04/2022,05:12:03,0.004,0.0,0.0,0.0
18/04/2022,05:13:12,0.004,0.0,0.0,0.0
18/04/2022,05:15:04,0.005,0.0,0.0,0.0
18/04/2022,05:16:02,0.005,0.0,0.0,0.0
18/04/2022,05:17:03,0.006,0.0,0.0,0.0
18/04/2022,05:18:03,0.006,0.0,0.0,0.0
18/04/2022,05:19:04,0.006,0.0,0.0,0.0
18/04/2022,05:20:11,0.005,0.0,0.0,0.0
18/04/2022,05:21:03,0.006,0.0,0.0,0.0
18/04/2022,05:22:03,0.006,0.0,0.0,0.0
18/04/2022,05:23:12,0.006,0.0,0.0,0.0
18/04/2022,05:24:11,0.007,0.0,0.0,0.0
18/04/2022,05:25:03,0.007,0.0,0.0,0.0
18/04/2022,05:26:03,0.007,0.0,0.0,0.0
18/04/2022,05:27:03,0.008,0.0,0.0,0.0
18/04/2022,05:28:05,0.008,0.0,0.001,0.001
18/04/2022,05:29:03,0.007,0.0,0.001,0.0
18/04/2022,05:30:03,0.009,0.0,0.001,0.0
18/04/2022,05:31:03,0.008,0.0,0.001,0.0
18/04/2022,05:32:04,0.009,0.0,0.001,0.0
18/04/2022,05:33:03,0.009,0.0,0.001,0.0
18/04/2022,05:34:05,0.010,0.0,0.001,0.0
18/04/2022,05:35:03,0.010,0.0,0.002,0.001
18/04/2022,05:36:05,0.010,0.0,0.002,0.0
18/04/2022,05:37:03,0.012,0.0,0.002,0.0
18/04/2022,05:38:04,0.011,0.0,0.002,0.0
18/04/2022,05:39:03,0.012,0.0,0.002,0.0
18/04/2022,05:40:03,0.013,0.0,0.003,0.001
18/04/2022,05:41:03,0.013,0.0,0.003,0.0
18/04/2022,05:42:03,0.013,0.0,0.003,0.0
18/04/2022,05:43:04,0.014,0.0,0.003,0.0
18/04/2022,05:44:11,0.014,0.0,0.003,0.0
18/04/2022,05:45:03,0.015,0.0,0.004,0.001
18/04/2022,05:46:04,0.015,0.0,0.004,0.0
18/04/2022,05:47:03,0.016,0.0,0.004,0.0
18/04/2022,05:48:03,0.016,0.0,0.004,0.0
18/04/2022,05:49:03,0.017,0.0,0.005,0.001
18/04/2022,05:50:03,0.017,0.0,0.005,0.0
18/04/2022,05:51:11,0.018,0.0,0.005,0.0
18/04/2022,05:52:03,0.018,0.0,0.006,0.001
18/04/2022,05:53:03,0.019,0.0,0.006,0.0
18/04/2022,05:54:03,0.019,0.0,0.006,0.0
18/04/2022,05:55:04,0.021,0.0,0.007,0.001
18/04/2022,05:56:03,0.021,0.0,0.007,0.0
18/04/2022,05:57:03,0.023,0.0,0.007,0.0
18/04/2022,05:58:03,0.023,0.0,0.008,0.001
18/04/2022,05:59:04,0.023,0.0,0.008,0.0
18/04/2022,06:00:03,0.024,0.0,0.008,0.0
18/04/2022,06:01:11,0.025,0.0,0.009,0.001
18/04/2022,06:03:05,0.026,0.0,0.01,0.001
18/04/2022,06:04:03,0.027,0.0,0.01,0.0
18/04/2022,06:05:04,0.028,0.0,0.011,0.001
18/04/2022,06:06:04,0.029,0.0,0.011,0.0
18/04/2022,06:07:03,0.030,0.0,0.012,0.001
18/04/2022,06:08:03,0.031,0.0,0.012,0.0
18/04/2022,06:09:03,0.031,0.0,0.013,0.001
18/04/2022,06:10:04,0.032,0.0,0.013,0.0
18/04/2022,06:11:12,0.034,0.0,0.014,0.001
18/04/2022,06:12:03,0.034,0.0,0.014,0.0
18/04/2022,06:13:03,0.035,0.0,0.015,0.001
18/04/2022,06:14:04,0.036,0.0,0.015,0.0
18/04/2022,06:15:03,0.038,0.0,0.016,0.001
18/04/2022,06:16:04,0.038,0.0,0.017,0.001
18/04/2022,06:17:03,0.039,0.0,0.017,0.0
18/04/2022,06:18:03,0.041,0.0,0.018,0.001
18/04/2022,06:19:03,0.042,0.0,0.019,0.001
18/04/2022,06:20:04,0.044,0.0,0.019,0.0
18/04/2022,06:21:03,0.045,0.0,0.02,0.001
18/04/2022,06:22:12,0.046,0.0,0.021,0.001
18/04/2022,06:24:04,0.048,0.0,0.022,0.001
18/04/2022,06:25:03,0.050,0.0,0.023,0.001
18/04/2022,06:26:06,0.052,0.0,0.024,0.001
18/04/2022,06:27:03,0.052,0.0,0.025,0.001
18/04/2022,06:28:12,0.055,0.0,0.026,0.001
18/04/2022,06:29:03,0.055,0.0,0.027,0.001
18/04/2022,06:30:03,0.056,0.0,0.028,0.001
18/04/2022,06:31:03,0.058,0.0,0.029,0.001
18/04/2022,06:32:12,0.060,0.0,0.03,0.001
18/04/2022,06:34:04,0.063,0.0,0.032,0.002
18/04/2022,06:35:03,0.065,0.0,0.033,0.001
18/04/2022,06:36:03,0.065,0.0,0.034,0.001
18/04/2022,06:37:03,0.066,0.0,0.035,0.001
18/04/2022,06:38:03,0.069,0.0,0.036,0.001
18/04/2022,06:39:03,0.070,0.0,0.037,0.001
18/04/2022,06:40:03,0.072,0.0,0.038,0.001
18/04/2022,06:41:03,0.075,0.0,0.04,0.002
18/04/2022,06:42:12,0.075,0.0,0.041,0.001
18/04/2022,06:44:04,0.076,0.0,0.043,0.002
18/04/2022,06:45:03,0.078,0.0,0.045,0.002
18/04/2022,06:46:04,0.079,0.0,0.046,0.001
18/04/2022,06:47:03,0.081,0.0,0.047,0.001
18/04/2022,06:48:04,0.082,0.0,0.049,0.002
18/04/2022,06:49:04,0.083,0.0,0.05,0.001
18/04/2022,06:50:04,0.086,0.0,0.051,0.001
18/04/2022,06:51:04,0.086,0.0,0.053,0.002
18/04/2022,06:52:03,0.088,0.0,0.054,0.001
18/04/2022,06:53:03,0.089,0.0,0.056,0.002
18/04/2022,06:54:05,0.092,0.0,0.057,0.001
18/04/2022,06:55:11,0.091,0.0,0.059,0.002
18/04/2022,06:56:11,0.092,0.0,0.06,0.001
18/04/2022,06:57:03,0.094,0.0,0.062,0.002
18/04/2022,06:58:04,0.095,0.0,0.063,0.001
18/04/2022,06:59:03,0.098,0.0,0.065,0.002
18/04/2022,07:00:04,0.100,0.0,0.067,0.002
18/04/2022,07:01:03,0.101,0.0,0.068,0.001
18/04/2022,07:02:04,0.102,0.0,0.07,0.002
18/04/2022,07:03:12,0.105,0.0,0.072,0.002
18/04/2022,07:05:04,0.109,0.0,0.075,0.003
18/04/2022,07:06:03,0.113,0.0,0.077,0.002
18/04/2022,07:07:04,0.116,0.0,0.079,0.002
18/04/2022,07:08:04,0.120,0.0,0.081,0.002
18/04/2022,07:09:04,0.124,0.0,0.083,0.002
18/04/2022,07:10:03,0.128,0.0,0.085,0.002
18/04/2022,07:11:04,0.132,0.0,0.087,0.002
18/04/2022,07:12:03,0.136,0.0,0.09,0.003
18/04/2022,07:13:03,0.139,0.0,0.092,0.002
18/04/2022,07:14:04,0.142,0.0,0.094,0.002
18/04/2022,07:15:04,0.145,0.0,0.097,0.003
18/04/2022,07:16:12,0.148,0.0,0.099,0.002
18/04/2022,07:18:04,0.154,0.0,0.104,0.005
18/04/2022,07:19:04,0.157,0.0,0.107,0.003
18/04/2022,07:20:04,0.158,0.0,0.109,0.002
18/04/2022,07:21:04,0.160,0.0,0.112,0.003
18/04/2022,07:22:03,0.166,0.0,0.115,0.003
18/04/2022,07:23:12,0.169,0.0,0.118,0.003
18/04/2022,07:24:03,0.168,0.0,0.12,0.002
18/04/2022,07:25:03,0.165,0.0,0.123,0.003
18/04/2022,07:26:03,0.165,0.0,0.126,0.003
18/04/2022,07:27:03,0.165,0.0,0.129,0.003
18/04/2022,07:28:03,0.167,0.0,0.131,0.002
18/04/2022,07:29:04,0.169,0.0,0.134,0.003
18/04/2022,07:30:03,0.173,0.0,0.137,0.003
18/04/2022,07:31:03,0.177,0.0,0.14,0.003
18/04/2022,07:32:04,0.181,0.0,0.143,0.003
18/04/2022,07:33:03,0.186,0.0,0.146,0.003
18/04/2022,07:34:03,0.188,0.0,0.149,0.003
18/04/2022,07:35:04,0.190,0.0,0.152,0.003
18/04/2022,07:36:03,0.194,0.0,0.155,0.003
18/04/2022,07:37:04,0.199,0.0,0.159,0.004
18/04/2022,07:38:04,0.205,0.0,0.162,0.003
18/04/2022,07:39:03,0.210,0.0,0.166,0.004
18/04/2022,07:40:12,0.217,0.0,0.17,0.004
18/04/2022,07:41:03,0.223,1.0,0.173,0.003
18/04/2022,07:42:03,0.224,1.0,0.176,0.003
18/04/2022,07:43:03,0.231,1.0,0.18,0.004
18/04/2022,07:44:03,0.232,1.0,0.184,0.004
18/04/2022,07:45:03,0.235,1.0,0.188,0.004
18/04/2022,07:46:03,0.241,1.0,0.192,0.004
18/04/2022,07:47:11,0.246,1.0,0.197,0.005
18/04/2022,07:49:04,0.267,1.0,0.205,0.008
18/04/2022,07:50:04,0.274,1.0,0.209,0.004
18/04/2022,07:51:04,0.283,1.0,0.214,0.005
18/04/2022,07:52:03,0.272,1.0,0.218,0.004
18/04/2022,07:53:03,0.274,1.0,0.223,0.005
18/04/2022,07:54:03,0.276,1.0,0.227,0.004
18/04/2022,07:55:03,0.280,1.0,0.232,0.005
18/04/2022,07:56:03,0.285,1.0,0.237,0.005
18/04/2022,07:57:11,0.288,1.0,0.242,0.005
18/04/2022,07:58:03,0.287,1.0,0.246,0.004
18/04/2022,07:59:03,0.293,1.0,0.251,0.005
18/04/2022,08:00:03,0.297,1.0,0.256,0.005
18/04/2022,08:01:03,0.299,1.0,0.261,0.005
18/04/2022,08:02:04,0.302,1.0,0.266,0.005
18/04/2022,08:03:04,0.309,1.0,0.271,0.005
18/04/2022,08:04:03,0.313,1.0,0.276,0.005
18/04/2022,08:05:03,0.318,1.0,0.282,0.006
18/04/2022,08:06:03,0.318,1.0,0.287,0.005
18/04/2022,08:07:03,0.326,1.0,0.292,0.005
18/04/2022,08:08:04,0.325,1.0,0.298,0.006
18/04/2022,08:09:03,0.324,1.0,0.303,0.005
18/04/2022,08:10:03,0.325,1.0,0.309,0.006
18/04/2022,08:11:12,0.335,1.0,0.315,0.006
18/04/2022,08:12:03,0.336,1.0,0.319,0.004
18/04/2022,08:13:04,0.333,1.0,0.325,0.006
18/04/2022,08:14:03,0.338,1.0,0.331,0.006
18/04/2022,08:15:03,0.337,1.0,0.336,0.005
18/04/2022,08:16:04,0.342,1.0,0.342,0.006
18/04/2022,08:17:15,0.346,1.0,0.349,0.007
18/04/2022,08:19:04,0.353,1.0,0.359,0.01
18/04/2022,08:20:03,0.354,1.0,0.365,0.006
18/04/2022,08:21:04,0.355,1.0,0.371,0.006
18/04/2022,08:22:03,0.360,1.0,0.377,0.006
18/04/2022,08:23:03,0.361,1.0,0.383,0.006
18/04/2022,08:24:04,0.365,1.0,0.389,0.006
18/04/2022,08:25:04,0.363,1.0,0.395,0.006
18/04/2022,08:26:04,0.365,1.0,0.401,0.006
18/04/2022,08:27:03,0.371,1.0,0.407,0.006
18/04/2022,08:28:03,0.368,1.0,0.413,0.006
18/04/2022,08:29:20,0.371,1.0,0.421,0.008
18/04/2022,08:31:03,0.379,1.0,0.432,0.011
18/04/2022,08:32:04,0.386,1.0,0.439,0.007
18/04/2022,08:33:03,0.400,1.0,0.445,0.006
18/04/2022,08:34:04,0.410,1.0,0.452,0.007
18/04/2022,08:35:03,0.414,1.0,0.459,0.007
18/04/2022,08:36:03,0.418,1.0,0.466,0.007
18/04/2022,08:37:03,0.423,1.0,0.473,0.007
18/04/2022,08:38:12,0.435,1.0,0.481,0.008
18/04/2022,08:40:04,0.484,1.0,0.495,0.014
18/04/2022,08:41:04,0.484,1.0,0.503,0.008
18/04/2022,08:42:04,0.490,1.0,0.511,0.008
18/04/2022,08:43:03,0.502,1.0,0.519,0.008
18/04/2022,08:44:07,0.516,1.0,0.528,0.009
18/04/2022,08:45:04,0.522,1.0,0.537,0.009
18/04/2022,08:46:04,0.528,1.0,0.545,0.008
18/04/2022,08:47:03,0.549,1.0,0.554,0.009
18/04/2022,08:48:12,0.544,1.0,0.565,0.011
18/04/2022,08:49:02,0.545,1.0,0.572,0.007
18/04/2022,08:50:03,0.545,1.0,0.582,0.01
18/04/2022,08:51:04,0.563,1.0,0.591,0.009
18/04/2022,08:52:03,0.560,1.0,0.6,0.009
18/04/2022,08:53:04,0.550,1.0,0.61,0.01
18/04/2022,08:53:56,0.548,1.0,0.617,0.007
18/04/2022,08:55:04,0.555,1.0,0.628,0.011
18/04/2022,08:56:04,0.565,1.0,0.637,0.009
18/04/2022,08:57:14,0.566,1.0,0.648,0.011
18/04/2022,08:59:04,0.588,1.0,0.666,0.018
18/04/2022,09:00:03,0.594,1.0,0.676,0.01
18/04/2022,09:01:12,0.621,1.0,0.687,0.011
18/04/2022,09:02:03,0.604,1.0,0.696,0.009
18/04/2022,09:03:03,0.624,1.0,0.706,0.01
18/04/2022,09:04:14,0.609,1.0,0.718,0.012
18/04/2022,09:06:05,0.609,1.0,0.737,0.019
18/04/2022,09:07:04,0.599,1.0,0.747,0.01
18/04/2022,09:08:03,0.626,1.0,0.757,0.01
18/04/2022,09:09:04,0.686,2.0,0.768,0.011
18/04/2022,09:10:03,0.656,2.0,0.779,0.011
18/04/2022,09:11:03,0.653,2.0,0.79,0.011
18/04/2022,09:12:04,0.663,2.0,0.801,0.011
18/04/2022,09:13:03,0.685,2.0,0.812,0.011
18/04/2022,09:14:04,0.693,2.0,0.824,0.012
18/04/2022,09:15:03,0.689,2.0,0.835,0.011
18/04/2022,09:16:03,0.637,1.0,0.846,0.011
18/04/2022,09:17:04,0.656,2.0,0.857,0.011
18/04/2022,09:18:04,0.649,1.0,0.868,0.011
18/04/2022,09:19:03,0.679,2.0,0.879,0.011
18/04/2022,09:20:03,0.653,2.0,0.89,0.011
18/04/2022,09:21:04,0.706,2.0,0.902,0.012
18/04/2022,09:22:04,0.683,2.0,0.913,0.011
18/04/2022,09:23:04,0.660,2.0,0.924,0.011
18/04/2022,09:24:03,0.712,2.0,0.935,0.011
18/04/2022,09:25:03,0.733,2.0,0.947,0.012
18/04/2022,09:26:03,0.741,2.0,0.959,0.012
18/04/2022,09:27:04,0.752,2.0,0.972,0.013
18/04/2022,09:28:12,0.809,2.0,0.987,0.015
18/04/2022,09:29:04,0.840,2.0,0.999,0.012
18/04/2022,09:30:04,0.832,2.0,1.013,0.014
18/04/2022,09:31:04,0.806,2.0,1.026,0.013
18/04/2022,09:32:04,0.809,2.0,1.04,0.014
18/04/2022,09:33:04,0.781,2.0,1.053,0.013
18/04/2022,09:34:04,0.779,2.0,1.066,0.013
18/04/2022,09:35:04,0.801,2.0,1.079,0.013
18/04/2022,09:36:04,0.855,2.0,1.093,0.014
18/04/2022,09:37:03,0.867,2.0,1.107,0.014
18/04/2022,09:38:12,0.856,2.0,1.123,0.016
18/04/2022,09:40:04,0.909,2.0,1.151,0.028
18/04/2022,09:41:10,0.906,2.0,1.168,0.017
18/04/2022,09:42:03,0.901,2.0,1.181,0.013
18/04/2022,09:43:04,0.900,2.0,1.196,0.015
18/04/2022,09:44:04,0.912,2.0,1.211,0.015
18/04/2022,09:45:03,0.915,2.0,1.227,0.016
18/04/2022,09:46:03,0.921,2.0,1.242,0.015
18/04/2022,09:47:05,0.900,2.0,1.257,0.015
18/04/2022,09:48:04,0.920,2.0,1.272,0.015
18/04/2022,09:49:04,0.943,2.0,1.288,0.016
18/04/2022,09:50:03,0.931,2.0,1.303,0.015
18/04/2022,09:51:12,0.935,2.0,1.321,0.018
18/04/2022,09:53:05,0.942,2.0,1.35,0.029
18/04/2022,09:54:04,0.997,2.0,1.366,0.016
18/04/2022,09:55:04,1.017,2.0,1.382,0.016
18/04/2022,09:56:04,1.012,2.0,1.399,0.017
18/04/2022,09:57:04,0.973,2.0,1.416,0.017
18/04/2022,09:58:04,0.982,2.0,1.432,0.016
18/04/2022,09:59:04,1.040,2.0,1.449,0.017
18/04/2022,10:00:03,1.060,2.0,1.467,0.018
18/04/2022,10:01:04,1.055,2.0,1.484,0.017
18/04/2022,10:02:03,1.057,2.0,1.502,0.018
18/04/2022,10:02:57,1.093,3.0,1.518,0.016
18/04/2022,10:04:04,1.080,2.0,1.538,0.02
18/04/2022,10:05:03,1.058,2.0,1.556,0.018
18/04/2022,10:06:04,1.063,2.0,1.574,0.018
18/04/2022,10:07:04,1.040,2.0,1.591,0.017
18/04/2022,10:08:04,1.036,2.0,1.608,0.017
18/04/2022,10:09:04,1.051,2.0,1.626,0.018
18/04/2022,10:10:12,0.836,2.0,1.645,0.019
18/04/2022,10:11:04,0.832,2.0,1.657,0.012
18/04/2022,10:12:03,0.812,2.0,1.67,0.013
18/04/2022,10:13:04,1.181,3.0,1.687,0.017
18/04/2022,10:14:04,1.189,3.0,1.706,0.019
18/04/2022,10:15:04,1.203,3.0,1.726,0.02
18/04/2022,10:16:04,0.887,2.0,1.746,0.02
18/04/2022,10:17:12,0.855,2.0,1.762,0.016
18/04/2022,10:18:04,1.218,3.0,1.778,0.016
18/04/2022,10:19:04,1.258,3.0,1.799,0.021
18/04/2022,10:20:12,1.273,3.0,1.823,0.024
18/04/2022,10:22:04,1.316,3.0,1.863,0.04
18/04/2022,10:23:04,1.227,3.0,1.884,0.021
18/04/2022,10:24:04,1.245,3.0,1.905,0.021
18/04/2022,10:25:03,1.213,3.0,1.925,0.02
18/04/2022,10:26:04,0.947,2.0,1.943,0.018
18/04/2022,10:27:04,1.069,2.0,1.959,0.016
18/04/2022,10:28:04,1.033,2.0,1.976,0.017
18/04/2022,10:29:02,1.098,3.0,1.994,0.018
18/04/2022,10:30:03,1.200,3.0,2.014,0.02
18/04/2022,10:31:04,1.150,3.0,2.033,0.019
18/04/2022,10:32:03,1.087,2.0,2.052,0.019